Torna al catalogo

FENGYUN 1C DEB

AttivoSSO
NORAD 30362·DEBRIS·🇨🇳 China

Lanciato May 10, 1999 da Taiyuan Satellite Launch Center

Loading…

Prossimi Passaggi (prossime 24 ore)

TLE

AggiornatoSource: Space-Track

Epoca: Sep 14, 2026, 06:35 UTC

1 30362U 99025ABZ 26257.27481615  .00002758  00000-0  14258-2 0  9999
2 30362  99.0503 188.0864 0091339 289.1135  70.0164 14.13711191   570

Traccia FENGYUN 1C DEB in tempo reale con AllMySat

Download on the App Store